Weather History for Watsonville, CA

Change the Weather History Date:

Monday, September 23, 2013

  Actual Average Record
Temperature  
Mean Temperature 67 °F 63 °F  
Max Temperature 82 °F 75 °F 94 °F (2002)
Min Temperature 51 °F 51 °F 47 °F (2006)
Degree Days  
Heating Degree Days 0    
Month to date heating degree days 20  
Since 1 July heating degree days 165  
Cooling Degree Days 2    
Month to date cooling degree days 44  
Year to date cooling degree days 113  
Growing Degree Days 16 (Base 50)    
Moisture  
Dew Point 51 °F    
Average Humidity 61    
Maximum Humidity 89    
Minimum Humidity 33    
Precipitation  
Precipitation 0.00 in - 0.30 in (1990)
Month to date precipitation 0.08  
Year to date precipitation 2.54  
Since 1 July precipitation 0.15  
Sea Level Pressure  
Sea Level Pressure 29.97 in    
Wind  
Wind Speed 4 mph (West)    
Max Wind Speed 13 mph    
Max Gust Speed 15 mph    
Visibility 10 miles    
Events      
T = Trace of Precipitation, MM = Missing Value Source: NWS Daily Summary

Daily Weather History Graph

Daily Weather History Graph

Search for Another Location

Airport:

Trip Planner

Search our weather history database for the weather conditions in past years. The results will help you decide how hot, cold, wet, or windy it might be!

Date:

Astronomy

Sep. 23, 2013 Rise Set
Actual Time 6:56 AM PDT 7:02 PM PDT
Civil Twilight 6:30 AM PDT 7:27 PM PDT
Nautical Twilight 5:59 AM PDT 7:58 PM PDT
Astronomical Twilight 5:29 AM PDT 8:28 PM PDT
Moon 9:45 PM PDT (9/23) 11:13 AM PDT (9/23)
Length of Visible Light 12h 57m
Length of Day
12h 05m
Waning Gibbous, 80% of the Moon is Illuminated
Sep 23
Waning Gibbous
Sep 26
Last Quarter
Oct 4
New
Oct 11
First Quarter
Oct 18
Full

Hourly Weather History & Observations

Time (PDT) Temp. Dew Point Humidity Pressure Visibility Wind Dir Wind Speed Gust Speed Precip Events Conditions
12:53 AM 54.0 °F 48.9 °F 83% 30.01 in 10.0 mi Calm Calm - N/A   Clear
1:53 AM 53.1 °F 48.9 °F 86% 30.01 in 10.0 mi NW 3.5 mph - N/A   Clear
2:53 AM 53.1 °F 48.9 °F 86% 29.99 in 10.0 mi WNW 5.8 mph - N/A   Clear
3:53 AM 53.1 °F 48.9 °F 86% 29.99 in 10.0 mi NW 3.5 mph - N/A   Clear
4:53 AM 51.1 °F 48.0 °F 89% 29.99 in 10.0 mi Calm Calm - N/A   Clear
5:53 AM 52.0 °F 48.0 °F 86% 29.99 in 10.0 mi NW 3.5 mph - N/A   Clear
6:53 AM 51.1 °F 48.0 °F 89% 30.00 in 10.0 mi NW 3.5 mph - N/A   Clear
7:53 AM 54.0 °F 48.9 °F 83% 30.01 in 10.0 mi Calm Calm - N/A   Clear
8:53 AM 60.1 °F 51.1 °F 72% 30.02 in 10.0 mi West 3.5 mph - N/A   Clear
9:53 AM 66.0 °F 51.1 °F 59% 30.02 in 10.0 mi Calm Calm - N/A   Clear
10:53 AM 72.0 °F 51.1 °F 48% 30.01 in 10.0 mi Calm Calm - N/A   Clear
11:53 AM 75.9 °F 51.1 °F 42% 29.99 in 10.0 mi Calm Calm - N/A   Clear
12:53 PM 77.0 °F 50.0 °F 39% 29.98 in 10.0 mi West 9.2 mph - N/A   Clear
1:53 PM 78.1 °F 50.0 °F 37% 29.96 in 10.0 mi WSW 8.1 mph - N/A   Clear
2:53 PM 82.0 °F 50.0 °F 33% 29.94 in 10.0 mi WSW 8.1 mph - N/A   Clear
3:53 PM 79.0 °F 52.0 °F 39% 29.92 in 10.0 mi WSW 11.5 mph - N/A   Clear
4:53 PM 81.0 °F 52.0 °F 36% 29.92 in 10.0 mi West 5.8 mph - N/A   Clear
5:53 PM 80.1 °F 51.1 °F 36% 29.91 in 10.0 mi SSW 4.6 mph - N/A   Clear
6:53 PM 75.0 °F 52.0 °F 44% 29.91 in 10.0 mi Calm Calm - N/A   Clear
7:53 PM 64.0 °F 55.9 °F 75% 29.94 in 10.0 mi South 5.8 mph - N/A   Clear
8:53 PM 62.1 °F 55.9 °F 80% 29.96 in 10.0 mi South 4.6 mph - N/A   Clear
9:53 PM 62.1 °F 57.0 °F 84% 29.96 in 10.0 mi Calm Calm - N/A   Clear
10:53 PM 61.0 °F 55.9 °F 83% 29.96 in 10.0 mi Calm Calm - N/A   Clear
11:53 PM 60.1 °F 55.0 °F 83% 29.96 in 10.0 mi NW 3.5 mph - N/A   Clear